Location: Newark
(9.4667°S, 159.8167°E)
Time: 17:45:09
(UTC+00:00)

Courier 1B Rocket - Pass Details

Date: 28 November 2019
Orbit: 920 x 1202 km, 28.2° (Epoch: 10 December)

Event Time Altitude Azimuth Distance (km) Brightness Sun altitude
Rises 17:30:15 0° 232° (SW) 3,913 7.9 -18.8°
Reaches altitude 10° 17:33:21 10° 224° (SW) 2,908 7.3 -18.1°
Maximum altitude 17:39:47 36° 159° (SSE) 1,556 6.5 -16.7°
Drops below altitude 10° 17:45:47 10° 93° (E) 2,717 8.4 -15.4°
Sets 17:48:34 0° 85° (E) 3,628 9.1 -14.8°
